User: anonymous   Login
Location: Albany
(35.0000°S, 118.0000°E)
Time: 16:15:44
(UTC-05:00)
Language:

ERS-1 Rocket - Orbit

View from above orbital plane
View from above orbital plane
View from above satellite
View from above satellite

Ground track
Ground track

The orbit data is extracted from the following two-line orbital elements,

1 21610U 91050F   16038.74330106 +.00000101 +00000-0 +45916-4 0  9998
2 21610 098.6746 084.3051 0002915 002.8390 107.5344 14.40697659288498
Epoch (UTC): 07 February 2016 17:50:21
Eccentricity: 0.0002915
inclination: 98.6746°
perigee height: 754 km
apogee height: 758 km
right ascension of ascending node: 84.3051°
argument of perigee: 2.8390°
revolutions per day: 14.40697659
mean anomaly at epoch: 107.5344°
orbit number at epoch: 28849

The dashed part of the orbit path shows where the satellite is in the earth's shadow,  

DLR